Arlington, WA
on Friday, January 18, 2013

Friday
Previous Day Next Day
Daily Summary
 ActualAverageRecord
Temperature
Mean Temperature °F °F  
Max Temperature 33°F 51°F 59°F (2005)
Min Temperature 21°F 35°F 21°F (2000)
Degree Days
Heating Degree Days 38    
Moisture
Dew Point 27°F   
Average Humidity 92    
Maximum Humidity 100    
Minimum Humidity 80    
Precipitation
Precipitation 0.00 in in in ()
Wind
Wind Speed 0 mph   
Max Wind Speed 0 mph   
Max Gust Speed mph   
Averages and records for this station are not official NWS values.
Key: T is trace of precipitation, MM is missing value
Source: NWS Daily Summary
Seasonal Weather Averages
Time(PST)TemperatureDew PointHumidity Pressure Visibility Wind DirectionWind SpeedGust SpeedPrecipitationEvents Conditions
12:15 AM 26.6°F 24.8°F 93% 30.32 in 0.2 miles Calm Calm - N/A   Overcast
12:35 AM 26.6°F 23.0°F 86% 30.31 in 0.2 miles Calm Calm - N/A   Overcast
12:55 AM 26.6°F 24.8°F 93% 30.31 in 0.2 miles Calm Calm - N/A   Overcast
1:15 AM 26.6°F 24.8°F 93% 30.31 in 0.2 miles Calm Calm - N/A   Overcast
1:35 AM 26.6°F 24.8°F 93% 30.31 in 0.2 miles Calm Calm - N/A   Overcast
1:55 AM 26.6°F 24.8°F 93% 30.32 in 0.2 miles Calm Calm - N/A   Overcast
2:15 AM 24.8°F 23.0°F 93% 30.32 in 0.2 miles Calm Calm - N/A   Overcast
2:55 AM 24.8°F 21.2°F 86% 30.32 in 0.5 miles Calm Calm - N/A   Overcast
3:15 AM 24.8°F 21.2°F 86% 30.31 in 0.2 miles Calm Calm - N/A   Overcast
3:35 AM 24.8°F 19.4°F 80% 30.31 in 0.2 miles Calm Calm - N/A   Overcast
3:55 AM 23.0°F 19.4°F 86% 30.30 in 0.2 miles Calm Calm - N/A   Overcast
4:15 AM 23.0°F 21.2°F 93% 30.29 in 0.2 miles Calm Calm - N/A   Overcast
4:35 AM 21.2°F 19.4°F 93% 30.29 in 0.2 miles Calm Calm - N/A   Overcast
4:55 AM 21.2°F 19.4°F 93% 30.29 in 0.2 miles Calm Calm - N/A   Overcast
5:15 AM 21.2°F 17.6°F 86% 30.30 in 0.5 miles Calm Calm - N/A   Overcast
5:35 AM 21.2°F 19.4°F 93% 30.30 in 0.8 miles Calm Calm - N/A   Overcast
5:55 AM 23.0°F 19.4°F 86% 30.30 in 0.2 miles Calm Calm - N/A   Overcast
6:15 AM 23.0°F 21.2°F 93% 30.29 in 0.5 miles Calm Calm - N/A   Overcast
6:35 AM 23.0°F 21.2°F 93% 30.29 in 0.5 miles Calm Calm - N/A   Overcast
6:55 AM 24.8°F 21.2°F 86% 30.29 in 0.2 miles Calm Calm - N/A   Overcast
7:15 AM 24.8°F 21.2°F 86% 30.30 in 0.5 miles Calm Calm - N/A   Overcast
7:35 AM 24.8°F 21.2°F 86% 30.30 in 0.2 miles Calm Calm - N/A   Overcast
8:15 AM 24.8°F 21.2°F 86% 30.32 in 0.5 miles Calm Calm - N/A   Overcast
8:35 AM 24.8°F 21.2°F 86% 30.32 in 0.5 miles Calm Calm - N/A   Overcast
8:55 AM 24.8°F 21.2°F 86% 30.33 in 0.5 miles Calm Calm - N/A   Overcast
9:15 AM 24.8°F 23.0°F 93% 30.33 in 0.5 miles Calm Calm - N/A   Overcast
9:35 AM 26.6°F 24.8°F 93% 30.33 in 0.8 miles Calm Calm - N/A   Overcast
9:55 AM 26.6°F 24.8°F 93% 30.33 in 0.5 miles Calm Calm - N/A   Overcast
10:15 AM 26.6°F 24.8°F 93% 30.34 in 0.8 miles Calm Calm - N/A   Overcast
10:35 AM 26.6°F 26.6°F 100% 30.33 in 1.0 miles Calm Calm - N/A   Overcast
10:55 AM 28.4°F 26.6°F 93% 30.33 in 0.5 miles Calm Calm - N/A   Overcast
11:15 AM 28.4°F 26.6°F 93% 30.33 in 0.5 miles Calm Calm - N/A   Overcast
11:35 AM 28.4°F 28.4°F 100% 30.33 in 0.5 miles Calm Calm - N/A   Overcast
11:55 AM 30.2°F 28.4°F 93% 30.34 in 0.5 miles Calm Calm - N/A   Overcast
12:15 PM 30.2°F 28.4°F 93% 30.33 in 0.2 miles Calm Calm - N/A   Overcast
12:35 PM 30.2°F 30.2°F 100% 30.33 in 0.5 miles Calm Calm - N/A   Overcast
12:55 PM 30.2°F 30.2°F 100% 30.33 in 0.5 miles Calm Calm - N/A   Overcast
1:15 PM 32.0°F 30.2°F 93% 30.33 in 0.5 miles Calm Calm - N/A   Overcast
1:35 PM 32.0°F 30.2°F 93% 30.32 in 0.8 miles Calm Calm - N/A   Overcast
1:55 PM 32.0°F 30.2°F 93% 30.32 in 0.8 miles Calm Calm - N/A   Overcast
2:15 PM 32.0°F 30.2°F 93% 30.33 in 0.8 miles Calm Calm - N/A   Overcast
2:35 PM 32.0°F 30.2°F 93% 30.32 in 0.8 miles Calm Calm - N/A   Overcast
2:55 PM 32.0°F 30.2°F 93% 30.32 in 0.8 miles Calm Calm - N/A   Overcast
3:15 PM 32.0°F 30.2°F 93% 30.33 in 0.5 miles Calm Calm - N/A   Overcast
3:35 PM 33.8°F 32.0°F 93% 30.33 in 0.5 miles Calm Calm - N/A   Overcast
3:55 PM 33.8°F 32.0°F 93% 30.33 in 0.5 miles Calm Calm - N/A   Overcast
4:15 PM 33.8°F 32.0°F 93% 30.33 in 0.5 miles Calm Calm - N/A   Overcast
4:35 PM 33.8°F 32.0°F 93% 30.33 in 0.5 miles Calm Calm - N/A   Overcast
4:55 PM 33.8°F 32.0°F 93% 30.33 in 0.5 miles Calm Calm - N/A   Overcast
5:15 PM 33.8°F 32.0°F 93% 30.33 in 0.5 miles Calm Calm - N/A   Overcast
5:35 PM 33.8°F 32.0°F 93% 30.33 in 0.5 miles Calm Calm - N/A   Overcast
5:55 PM 33.8°F 32.0°F 93% 30.33 in 0.5 miles Calm Calm - N/A   Overcast
6:35 PM 33.8°F 30.2°F 87% 30.33 in 0.5 miles Calm Calm - N/A   Overcast
6:55 PM 33.8°F 32.0°F 93% 30.33 in 0.2 miles Calm Calm - N/A   Overcast
7:15 PM 33.8°F 32.0°F 93% 30.33 in 0.2 miles Calm Calm - N/A   Overcast
7:35 PM 33.8°F 30.2°F 87% 30.34 in 0.2 miles Calm Calm - N/A   Overcast
7:55 PM 33.8°F 30.2°F 87% 30.34 in 0.2 miles Calm Calm - N/A   Overcast
8:15 PM 33.8°F 30.2°F 87% 30.34 in 0.2 miles Calm Calm - N/A   Overcast
8:35 PM 32.0°F 30.2°F 93% 30.35 in 0.2 miles Calm Calm - N/A   Overcast
8:55 PM 32.0°F 30.2°F 93% 30.35 in 0.2 miles Calm Calm - N/A   Overcast
9:15 PM 32.0°F 30.2°F 93% 30.36 in 0.2 miles Calm Calm - N/A   Overcast
9:35 PM 32.0°F 30.2°F 93% 30.36 in 0.2 miles Calm Calm - N/A   Overcast
9:55 PM 32.0°F 30.2°F 93% 30.37 in 0.2 miles Calm Calm - N/A   Overcast
10:15 PM 32.0°F 30.2°F 93% 30.37 in 0.2 miles Calm Calm - N/A   Overcast
10:35 PM 32.0°F 30.2°F 93% 30.36 in 0.2 miles Calm Calm - N/A   Overcast
10:55 PM 30.2°F 28.4°F 93% 30.37 in 0.2 miles Calm Calm - N/A   Overcast
11:15 PM 30.2°F 30.2°F 100% 30.37 in 0.2 miles Calm Calm - N/A   Overcast
11:35 PM 30.2°F 28.4°F 93% 30.38 in 0.5 miles Calm Calm - N/A   Overcast
11:55 PM 30.2°F 28.4°F 93% 30.37 in 0.5 miles Calm Calm - N/A   Overcast
Moon Phase
Jan. 18 Jan. 18 Jan. 26 Feb. 03 Feb. 10
Sunrise:07:51 AM (PST) Moon Rise:10:54 AM (PST)1/18
Sunset:04:47 PM (PST) Moon Set:12:20 AM (PST)1/18

Copyright © 2014 The Weather Underground, Inc.